Погода в Тарханской Потьме

Россия / Республика Мордовия     53°55′53″N   42°58′33″E
темп.,
°C
ветер,
м/с
пор.,
м/с
влажн.,
%
обл.,
%
осадки,
мм/ч
давл.,
гПа
погр.,
м
9 декабря, чт
чт900:00+1юв51193100 0.0 1018344
03:00+1юв51093100 0.0 1018343
06:00+1юв4994100 0.0 1019408
09:000юв3795100 0.1 1019357
12:00+1юв2494100 0.1 1020288
15:000ююв1199100 0.2 102160
18:000ссв2499100 0.0 1022168
21:00−1с4697100 0.1 1024335
10 декабря, пт
пт1000:00−3ссв4692100 0.0 1026269
03:00−3ссв4690100 0.1 1027295
06:00−5ссв489181 0.0 1029327
09:00−6св488728 0.0 1030340
12:00−5св56755 0.0 1031388
15:00−5св48743 0.0 1032370
18:00−6св49795 0.0 1033344
21:00−7всв498028 0.0 1034315
11 декабря, сб
сб1100:00−8всв48815 0.0 1035279
03:00−8всв49815 0.0 1035271
06:00−9всв49805 0.0 1035254
09:00−8в411793 0.0 1036280
12:00−6в48690 0.0 1036316
15:00−6в49732 0.0 1036296
18:00−7в511740 0.0 1037269
21:00−7в411735 0.0 1038246
12 декабря, вс
вс1200:00−7вюв49705 0.0 1038215
03:00−8вюв38715 0.0 1039180
06:00−8вюв37730 0.0 1039143
09:00−7юв497338 0.0 1039187
12:00−4юв4967100 0.0 1039303
15:00−5юв367185 0.0 1039134
18:00−5юв497119 0.0 1039174
21:00−5юв410655 0.0 1039214
13 декабря, пн
пн1300:00−6ююв38620 0.0 1039185
03:00−6ююв396435 0.0 1038185
06:00−6ююв41063100 0.0 1038196
09:00−6ююв41159100 0.0 1038253
12:00−4ююв41252100 0.0 1037345
15:00−4ююв41054100 0.0 1036266
18:00−4ююв41155100 0.0 1035268
21:00−4ююв41154100 0.0 1035286